Location: Borkenes
(68.7830°N, 16.1830°E)
Time: 17:13:46
(UTC+02:00)

N. Korean satellite - Visible Passes

Search period start: 16 October 2019 00:00
Search period end: 26 October 2019 00:00
Orbit: 455 x 508 km, 97.2° (Epoch: 15 October)

Date Brightness Start Highest point End Pass type
(mag) Time Alt. Az. Time Alt. Az. Time Alt. Az.
16 Oct 10.4 05:18:31 10° ENE 05:19:35 11° ENE 05:20:38 10° E visible
16 Oct 8.2 06:50:35 10° NNE 06:53:56 39° E 06:57:20 10° S visible
16 Oct 10.0 19:15:02 10° WSW 19:17:09 15° W 19:19:17 10° NW visible
17 Oct 9.0 06:25:22 10° NNE 06:28:28 28° E 06:31:36 10° SSE visible
17 Oct 9.5 18:48:50 10° SW 18:51:34 21° W 18:54:19 10° NW visible
18 Oct 9.7 06:00:15 10° NE 06:02:56 20° E 06:05:38 10° SE visible
18 Oct 8.8 18:22:55 10° SSW 18:26:02 30° W 18:29:11 10° NNW visible
19 Oct 10.1 05:35:20 10° NE 05:37:20 14° E 05:39:21 10° ESE visible
19 Oct 7.6 07:08:01 10° NNE 07:11:32 52° ESE 07:15:04 10° S visible
19 Oct 7.9 17:57:14 10° S 18:00:34 44° W 18:03:57 10° NNW visible
19 Oct 10.3 19:33:28 10° WSW 19:34:53 12° WNW 19:36:19 10° NW visible
20 Oct 10.6 05:11:24 10° ENE 05:11:40 10° ENE 05:11:55 10° E visible
20 Oct 8.5 06:42:45 10° NNE 06:46:05 36° E 06:49:28 10° SSE visible
20 Oct 9.9 19:06:53 10° SW 19:09:14 17° W 19:11:38 10° NW visible
21 Oct 9.2 06:17:33 10° NE 06:20:35 25° E 06:23:40 10° SSE visible
21 Oct 9.3 18:40:46 10° SSW 18:43:39 24° W 18:46:35 10° NW visible
22 Oct 9.8 05:52:28 10° NE 05:55:02 18° E 05:57:37 10° SE visible
22 Oct 7.0 07:25:29 10° NNE 07:29:04 69° ESE 07:32:42 10° SSW visible
22 Oct 8.5 18:14:56 10° SSW 18:18:08 34° W 18:21:25 10° NNW visible
23 Oct 10.2 05:27:38 10° NE 05:29:24 13° E 05:31:11 10° ESE visible
23 Oct 7.8 07:00:10 10° NNE 07:03:40 47° ESE 07:07:12 10° S visible
23 Oct 7.6 17:49:16 10° S 17:52:41 50° WSW 17:56:10 10° NNW visible
23 Oct 10.1 19:25:06 10° WSW 19:26:56 14° W 19:28:47 10° NW visible
24 Oct 8.7 06:34:54 10° NNE 06:38:12 32° E 06:41:33 10° SSE visible
24 Oct 9.7 18:58:43 10° SW 19:01:18 19° W 19:03:55 10° NW visible
25 Oct 9.4 06:09:43 10° NE 06:12:41 23° E 06:15:41 10° SE visible
25 Oct 9.0 18:32:42 10° SSW 18:35:43 27° W 18:38:49 10° NNW visible
